F8983 Weather Reports


Display with metric or nautical units.
time (UTC)temp
F
wind
direction
speed
MPH
gust
MPH
rain 1hr
in
rain 24hr
in
rain mn
in
humidity
%
barometer
mb
20260503203514 78 204 1.0 6.0 0.00 0.00 0.00 50 1012.0
20260503203034 79 0 2.0 6.0 0.00 0.00 0.00 50 1012.0
20260503202511 78 164 2.0 5.0 0.00 0.00 0.00 50 1012.0
20260503202016 78 164 1.0 5.0 0.00 0.00 0.00 50 1012.1
20260503201529 78 163 2.0 5.0 0.00 0.00 0.00 49 1012.1
20260503201010 78 165 1.0 6.0 0.00 0.00 0.00 51 1012.3
20260503200514 77 178 1.0 6.0 0.00 0.00 0.00 50 1012.3
20260503200030 77 172 1.0 6.0 0.00 0.00 0.00 51 1012.4
20260503195511 76 172 2.0 6.0 0.00 0.00 0.00 51 1012.5
20260503195019 76 165 1.0 6.0 0.00 0.00 0.00 51 1012.5
20260503194531 76 166 2.0 6.0 0.00 0.00 0.00 51 1012.6
20260503194015 76 172 2.0 5.0 0.00 0.00 0.00 50 1012.6
20260503193513 76 202 1.0 5.0 0.00 0.00 0.00 51 1012.7
20260503193043 76 204 2.0 5.0 0.00 0.00 0.00 51 1012.7
20260503192510 76 190 1.0 3.0 0.00 0.00 0.00 52 1012.7
20260503192009 76 190 1.0 3.0 0.00 0.00 0.00 53 1012.8
20260503191559 75 190 1.0 5.0 0.00 0.00 0.00 55 1012.9
20260503191010 75 190 1.0 5.0 0.00 0.00 0.00 55 1013.0
20260503190511 75 194 1.0 5.0 0.00 0.00 0.00 57 1013.0
20260503190033 74 190 1.0 4.0 0.00 0.00 0.00 57 1013.1
20260503185510 74 189 1.0 4.0 0.00 0.00 0.00 59 1013.1
20260503185011 74 190 2.0 5.0 0.00 0.00 0.00 58 1013.1
20260503184536 74 207 1.0 5.0 0.00 0.00 0.00 58 1013.1
20260503184013 73 215 2.0 5.0 0.00 0.00 0.00 58 1013.3
20260503183520 73 223 1.0 4.0 0.00 0.00 0.00 61 1013.2
20260503183030 73 225 1.0 3.0 0.00 0.00 0.00 60 1013.3
20260503182509 72 232 0.0 4.0 0.00 0.00 0.00 61 1013.3
20260503182014 72 232 1.0 4.0 0.00 0.00 0.00 61 1013.3
20260503181544 72 233 1.0 4.0 0.00 0.00 0.00 61 1013.4
20260503181011 71 236 2.0 4.0 0.00 0.00 0.00 63 1013.4
20260503180511 71 239 2.0 4.0 0.00 0.00 0.00 66 1013.4
20260503180033 70 250 1.0 3.0 0.00 0.00 0.00 66 1013.4
20260503175513 70 251 1.0 3.0 0.00 0.00 0.00 68 1013.5
20260503175016 69 251 0.0 4.0 0.00 0.00 0.00 69 1013.5
20260503174539 69 251 2.0 4.0 0.00 0.00 0.00 69 1013.5
20260503174016 68 256 1.0 4.0 0.00 0.00 0.00 71 1013.6
20260503173512 68 279 0.0 4.0 0.00 0.00 0.00 71 1013.6
20260503173028 67 279 1.0 4.0 0.00 0.00 0.00 70 1013.7
20260503172510 66 280 2.0 4.0 0.00 0.00 0.00 69 1013.7
20260503172015 66 278 1.0 4.0 0.00 0.00 0.00 71 1013.7
20260503171530 66 279 1.0 4.0 0.00 0.00 0.00 71 1013.7
20260503171010 65 285 1.0 4.0 0.00 0.00 0.00 70 1013.8
20260503170512 65 290 0.0 3.0 0.00 0.00 0.00 72 1013.9
20260503151012 56 248 0.0 1.0 0.00 0.00 0.00 88 1014.1
20260503150512 55 0 0.0 1.0 0.00 0.00 0.00 88 1014.2
20260503131013 49 0 0.0 0.0 0.00 0.01 0.00 87 1013.9
20260503130509 49 0 0.0 0.0 0.00 0.01 0.00 87 1014.0
20260503110511 51 0 0.0 0.0 0.00 0.01 0.00 86 1014.2
20260503090510 53 0 0.0 0.0 0.00 0.01 0.00 83 1014.4
20260503081539 55 0 0.0 1.0 0.00 0.01 0.00 81 1014.4
20260503081010 55 0 0.0 0.0 0.00 0.01 0.00 81 1014.3
20260503080511 55 0 0.0 0.0 0.00 0.01 0.00 81 1014.3
20260503072514 56 0 0.0 0.0 0.00 0.01 0.00 78 1014.3
20260503072009 56 0 0.0 1.0 0.00 0.01 0.00 78 1014.3
20260503071530 56 0 0.0 1.0 0.00 0.01 0.00 78 1014.3
20260503071011 56 0 0.0 1.0 0.00 0.01 0.00 78 1014.3
20260503070516 57 0 0.0 1.0 0.00 0.01 0.00 77 1014.3
20260503055013 59 0 0.0 0.0 0.00 0.01 0.01 74 1014.2
20260503054544 59 0 0.0 0.0 0.00 0.01 0.01 74 1014.2
20260503054011 59 0 0.0 0.0 0.00 0.01 0.01 74 1014.2
20260503053511 59 0 0.0 0.0 0.00 0.01 0.01 73 1014.2
20260503053031 59 0 0.0 0.0 0.00 0.01 0.01 73 1014.3
20260503052508 60 0 0.0 0.0 0.00 0.01 0.01 74 1014.2
20260503052011 60 0 0.0 0.0 0.00 0.01 0.01 74 1014.3
20260503051528 60 0 0.0 1.0 0.00 0.01 0.01 74 1014.3
20260503051009 60 0 0.0 1.0 0.00 0.01 0.01 74 1014.3
20260503050507 60 0 0.0 0.0 0.00 0.01 0.01 75 1014.2
20260503050033 61 0 0.0 0.0 0.00 0.01 0.01 74 1014.2
20260503045510 61 0 0.0 1.0 0.00 0.01 0.01 75 1014.2
20260503045012 61 0 0.0 1.0 0.00 0.01 0.01 75 1014.2
20260503044537 61 248 0.0 0.0 0.00 0.01 0.01 75 1014.2
20260503044010 62 0 0.0 0.0 0.00 0.01 0.01 75 1014.1
20260503043510 62 0 0.0 1.0 0.00 0.01 0.01 75 1014.0
20260503043038 62 0 0.0 1.0 0.00 0.01 0.01 75 1014.0
20260503042509 62 0 0.0 1.0 0.00 0.01 0.01 74 1014.0
20260503042016 63 0 0.0 1.0 0.00 0.01 0.01 74 1014.0
20260503041528 63 0 0.0 1.0 0.00 0.01 0.01 74 1013.9
20260503041008 63 0 0.0 2.0 0.00 0.01 0.01 73 1013.9
20260503040514 64 0 0.0 2.0 0.00 0.01 0.01 73 1013.9
20260503040033 64 248 0.0 1.0 0.00 0.01 0.01 73 1013.8
20260503035508 64 0 0.0 2.0 0.00 0.01 0.01 72 1013.7
20260503035012 65 0 0.0 2.0 0.00 0.01 0.01 72 1013.7
20260503034528 65 0 0.0 2.0 0.00 0.01 0.01 71 1013.7
20260503034007 65 0 0.0 1.0 0.00 0.01 0.01 71 1013.5
20260503033510 66 0 0.0 0.0 0.00 0.01 0.01 70 1013.5
20260503033028 66 0 0.0 0.0 0.00 0.01 0.01 69 1013.4
20260503032510 67 0 0.0 1.0 0.00 0.01 0.01 69 1013.3
20260503032012 67 0 0.0 1.0 0.00 0.01 0.01 69 1013.3
20260503031527 67 0 0.0 1.0 0.00 0.01 0.01 68 1013.2
20260503031008 68 0 0.0 1.0 0.00 0.01 0.01 68 1013.2
20260503030508 68 0 0.0 1.0 0.00 0.01 0.01 67 1013.1
20260503030035 69 0 0.0 2.0 0.00 0.01 0.01 66 1013.1
20260503025509 69 0 0.0 3.0 0.00 0.01 0.01 65 1013.1
20260503025009 70 0 0.0 3.0 0.00 0.01 0.01 63 1013.0
20260503024530 70 0 0.0 2.0 0.00 0.01 0.01 65 1012.9
20260503024011 70 0 0.0 2.0 0.00 0.01 0.01 62 1012.9
20260503023509 70 248 0.0 2.0 0.00 0.01 0.01 63 1012.9
20260503023028 71 0 0.0 2.0 0.00 0.01 0.01 61 1012.9
20260503022508 71 0 0.0 0.0 0.00 0.01 0.01 60 1012.8
20260503022013 71 0 0.0 1.0 0.00 0.01 0.01 60 1012.8
20260503021528 71 0 0.0 4.0 0.00 0.01 0.01 60 1012.8
20260503021010 71 248 0.0 4.0 0.00 0.01 0.01 60 1012.8
20260503020510 72 251 1.0 2.0 0.00 0.01 0.01 60 1012.8
20260503020028 72 0 0.0 2.0 0.00 0.01 0.01 60 1012.7
20260503015514 72 251 0.0 2.0 0.00 0.01 0.01 60 1012.7
20260503015008 72 0 0.0 3.0 0.00 0.01 0.01 60 1012.7
20260503014528 73 0 0.0 3.0 0.00 0.01 0.01 59 1012.6
20260503014011 73 251 0.0 4.0 0.00 0.01 0.01 59 1012.7
20260503013508 73 0 0.0 4.0 0.00 0.01 0.01 59 1012.7
20260503013038 74 250 0.0 4.0 0.00 0.01 0.01 59 1012.7
20260503012509 74 0 0.0 4.0 0.00 0.01 0.01 58 1012.7
20260503012016 74 251 1.0 4.0 0.00 0.01 0.01 58 1012.7
20260503011531 74 253 1.0 4.0 0.00 0.01 0.01 59 1012.7
20260503011010 74 255 1.0 4.0 0.00 0.01 0.01 59 1012.7
20260503010514 74 0 0.0 3.0 0.00 0.01 0.01 59 1012.7
20260503010030 74 178 1.0 3.0 0.00 0.01 0.01 60 1012.7
20260503005510 74 0 0.0 3.0 0.00 0.01 0.01 60 1012.7
20260503005010 74 0 0.0 4.0 0.00 0.01 0.01 60 1012.7
20260503004535 74 182 0.0 4.0 0.00 0.01 0.01 59 1012.8
20260503004009 74 0 1.0 4.0 0.00 0.01 0.01 59 1012.8
20260503003508 74 0 0.0 4.0 0.00 0.01 0.01 58 1012.8
20260503003042 74 194 2.0 4.0 0.00 0.01 0.01 58 1012.9
20260503002509 74 128 1.0 8.0 0.00 0.01 0.01 58 1012.9
20260503002009 74 0 2.0 8.0 0.00 0.01 0.01 57 1012.9
20260503001536 74 168 1.0 6.0 0.00 0.01 0.01 58 1012.9
20260503001008 74 0 1.0 6.0 0.00 0.01 0.01 58 1012.9
20260503000508 74 225 1.0 6.0 0.00 0.01 0.01 57 1013.0
20260503000031 74 137 0.0 5.0 0.00 0.01 0.01 57 1013.0
20260502235511 74 0 1.0 6.0 0.00 0.01 0.01 56 1013.0
20260502235015 74 148 1.0 6.0 0.00 0.01 0.01 56 1013.1
20260502234540 74 221 1.0 5.0 0.00 0.01 0.01 58 1013.1
20260502234009 74 221 1.0 5.0 0.00 0.01 0.01 58 1013.2
20260502233512 74 285 1.0 6.0 0.00 0.01 0.01 59 1013.2
20260502233038 74 291 1.0 6.0 0.00 0.01 0.01 59 1013.3
20260502232508 74 218 1.0 6.0 0.00 0.01 0.01 59 1013.5
20260502232011 74 234 2.0 7.0 0.00 0.01 0.01 58 1013.4
20260502231528 74 0 1.0 7.0 0.00 0.01 0.01 59 1013.5
20260502231008 74 271 1.0 7.0 0.00 0.01 0.01 59 1013.5
20260502230513 74 223 2.0 5.0 0.00 0.01 0.01 59 1013.6
20260502230034 74 143 2.0 7.0 0.00 0.01 0.01 60 1013.7
20260502225509 74 0 2.0 7.0 0.00 0.01 0.01 58 1013.7
20260502225011 74 340 0.0 6.0 0.00 0.01 0.01 60 1013.8
20260502224528 74 212 1.0 6.0 0.00 0.01 0.01 59 1013.8
20260502224013 74 211 3.0 6.0 0.00 0.01 0.01 57 1013.9
20260502223512 74 302 0.0 4.0 0.00 0.01 0.01 61 1014.0
20260502223040 74 302 1.0 6.0 0.00 0.01 0.01 61 1014.0
20260502222510 74 304 1.0 6.0 0.00 0.01 0.01 61 1014.1
20260502222012 74 186 2.0 7.0 0.00 0.01 0.01 60 1014.1
20260502221531 74 257 1.0 7.0 0.00 0.01 0.01 59 1014.2
20260502221010 74 0 0.0 8.0 0.00 0.01 0.01 62 1014.2
20260502220514 73 336 2.0 8.0 0.00 0.01 0.01 62 1014.3
20260502220028 73 90 1.0 6.0 0.00 0.01 0.01 64 1014.4
20260502215513 72 198 2.0 6.0 0.00 0.01 0.01 62 1014.4
20260502215011 72 281 1.0 6.0 0.00 0.01 0.01 62 1014.5
20260502214530 72 213 2.0 9.0 0.00 0.01 0.01 61 1014.5
20260502214007 72 207 3.0 9.0 0.00 0.01 0.01 61 1014.4
20260502213513 73 207 2.0 6.0 0.00 0.01 0.01 60 1014.5
20260502213029 73 225 2.0 5.0 0.00 0.01 0.01 61 1014.5
20260502212511 73 242 1.0 5.0 0.00 0.01 0.01 62 1014.6
20260502212014 72 257 1.0 5.0 0.00 0.01 0.01 62 1014.6
20260502211533 72 0 0.0 9.0 0.00 0.01 0.01 64 1014.7
20260502211008 71 200 1.0 9.0 0.00 0.01 0.01 66 1014.7
20260502210508 72 202 3.0 10.0 0.00 0.01 0.01 62 1014.7
20260502210035 72 294 3.0 10.0 0.00 0.01 0.01 62 1014.7
20260502205511 72 0 1.0 6.0 0.00 0.01 0.01 64 1014.8
20260502205014 71 220 1.0 7.0 0.00 0.01 0.01 64 1014.8
20260502204529 72 220 1.0 7.0 0.00 0.01 0.01 63 1014.8
20260502204007 72 217 2.0 8.0 0.00 0.01 0.01 61 1014.9